Content
SEND FEEDBACK

Daily
Averages
Monthly
Summary
United States of America

CAMP QUEZON, GUAM


Home > North America > United States > Guam
Elevation: 82 meters     Latitude: 13 28N     Longitude: 144 48E

WEATHER
 
SELECT A DAY
Number of Records: 213,057;   Date Range: 1/1/95 - 9/29/14
 
SHARE

PRINT THIS DATA

[ ← Previous Day ]
WEATHER ALMANAC - 16 FEBRUARY, 2013
[ Next Day → ]
[ °F ]   °C
Weather ElementAverageHighLow
Temperature25.9 °C29 °C (1:12 pm)24 °C (8:26 am)
Dewpoint23.8 °C25 °C (9:44 am)21.7 °C (2:54 am)
Humidity87.7 %94 % (8:26 am)77 % (12:54 pm)
Barometer1009.5 hPa1011.2 hPa (9:44 am)1007.1 hPa (3:54 am)
Wind Speed22 km/h33.3 km/h (2:10 pm)
Wind Gust42.6 km/h (2:10 pm)
Weather ElementAverage
Visibility12.9 km
Wind DirectionENE (71 °)

Weather ElementTotal
Precipitation19.81 mm
Cooling Degree Days8.2 (Base 18.3)
Growing Degree Days16.5 (Base 10)
Averaged from 41 records on 16 February, 2013
WEATHER CONDITIONS BREAKOUT
WIND DIRECTION BREAKOUT
WEATHER BY HOUR - 16 FEBRUARY, 2013
[ °F ]   °C
Local TimeTemperatureDewpointHumidityBarometerVisibilityWind DirectionWind SpeedGust SpeedPrecipitationEventsConditions
1:54 AM26.2 °C22.2 °C78 %1008.1 hPa16.1 kmENE (70°)24.1 km/hPartly Cloudy
2:54 AM24.4 °C21.7 °C85 %1007.5 hPa16.1 kmENE (60°)14.8 km/hPartly Cloudy
3:54 AM26.1 °C22.3 °C79 %1007.1 hPa16.1 kmENE (60°)18.5 km/hMostly Cloudy
4:54 AM26.2 °C22.9 °C82 %1007.5 hPa16.1 kmENE (70°)20.4 km/h0.51 mmScattered Clouds
5:54 AM25.3 °C23 °C87 %1007.8 hPa16.1 kmENE (70°)18.5 km/hOvercast
6:54 AM25.3 °C23.4 °C89 %1008.5 hPa16.1 kmENE (60°)13 km/h0 mmRainLight Rain
7:54 AM25.3 °C23.4 °C89 %1009.5 hPa16.1 kmEast (80°)18.5 km/h0.25 mmMostly Cloudy
8:26 AM24 °C23 °C94 %1010.8 hPa4 kmENE (60°)25.9 km/h35.2 km/h0 mmRainHeavy Rain
8:41 AM25 °C24 °C94 %1010.8 hPa16.1 kmENE (60°)18.5 km/h0.76 mmOvercast
8:54 AM25.5 °C24 °C91 %1010.2 hPa16.1 kmEast (80°)13 km/h0.76 mmOvercast
9:22 AM25 °C24 °C94 %1010.8 hPa16.1 kmENE (60°)22.2 km/hMostly Cloudy
9:44 AM27 °C25 °C89 %1011.2 hPa16.1 kmENE (70°)22.2 km/hMostly Cloudy
9:54 AM27 °C24.3 °C85 %1010.2 hPa16.1 kmENE (70°)24.1 km/hMostly Cloudy
10:54 AM27.8 °C24.5 °C82 %1010.2 hPa16.1 kmNE (50°)27.8 km/h33.3 km/hOvercast
11:04 AM28 °C24 °C79 %1010.8 hPa12.9 kmESE (110°)29.6 km/hMostly Cloudy
11:10 AM28 °C24 °C79 %1010.8 hPa4 kmESE (110°)16.7 km/h37 km/h0 mmRainRain
11:21 AM25 °C24 °C94 %1010.5 hPa4.8 kmEast (80°)16.7 km/h0.76 mmRainLight Rain
11:26 AM25 °C24 °C94 %1010.5 hPa4 kmENE (70°)29.6 km/h1.02 mmRainHeavy Rain
11:29 AM25 °C24 °C94 %1010.5 hPa2.4 kmENE (70°)25.9 km/h35.2 km/h1.78 mmRainHeavy Rain
11:36 AM25 °C24 °C94 %1010.2 hPa3.2 kmEast (80°)20.4 km/h2.79 mmRainLight Rain
11:45 AM25 °C24 °C94 %1010.2 hPa16.1 kmENE (60°)22.2 km/h3.05 mmOvercast
11:54 AM26.5 °C24.8 °C90 %1009.1 hPa16.1 kmEast (80°)25.9 km/h31.5 km/h3.05 mmMostly Cloudy
12:54 PM28.3 °C23.9 °C77 %1008.1 hPa16.1 kmNE (50°)29.6 km/hMostly Cloudy
1:12 PM29 °C25 °C79 %1008.8 hPa16.1 kmENE (60°)29.6 km/hMostly Cloudy
1:54 PM25.7 °C24.2 °C91 %1008.1 hPa4.8 kmEast (90°)18.5 km/h37 km/h0 mmRainHeavy Rain
2:01 PM25 °C24 °C94 %1008.8 hPa3.2 kmEast (100°)16.7 km/h33.3 km/h0.51 mmRainLight Rain
2:10 PM25 °C24 °C94 %1008.8 hPa6.4 kmEast (80°)33.3 km/h42.6 km/h0.76 mmRainLight Rain
2:22 PM25 °C24 °C94 %1008.8 hPa4.8 kmEast (80°)22.2 km/h38.9 km/h1.27 mmRainLight Rain
2:44 PM26 °C24 °C89 %1008.5 hPa16.1 kmENE (70°)22.2 km/h1.27 mmMostly Cloudy
2:54 PM25.9 °C23.7 °C88 %1007.8 hPa16.1 kmENE (70°)29.6 km/h38.9 km/h1.27 mmMostly Cloudy
3:54 PM27.9 °C24.2 °C80 %1008.1 hPa16.1 kmEast (80°)27.8 km/h42.6 km/hRainLight Rain
4:54 PM25.6 °C23.9 °C90 %1008.5 hPa16.1 kmEast (80°)27.8 km/h0 mmMostly Cloudy
5:54 PM26.7 °C23.7 °C83 %1008.5 hPa16.1 kmENE (70°)22.2 km/hMostly Cloudy
6:54 PM25.8 °C23.4 °C87 %1009.1 hPa16.1 kmENE (70°)20.4 km/hMostly Cloudy
7:54 PM25.9 °C23.6 °C87 %1009.5 hPa16.1 kmENE (70°)18.5 km/hScattered Clouds
8:22 PM26 °C24 °C89 %1010.5 hPa8 kmENE (60°)20.4 km/h0 mmRainRain
8:31 PM26 °C24 °C89 %1010.5 hPa14.5 kmENE (60°)20.4 km/h0 mmRainLight Rain
8:54 PM25.7 °C23.7 °C89 %1010.2 hPa16.1 kmENE (60°)20.4 km/h0 mmScattered Clouds
9:54 PM25.8 °C23.7 °C88 %1009.8 hPa16.1 kmENE (60°)16.7 km/hScattered Clouds
10:54 PM25.9 °C23.4 °C86 %1009.8 hPa16.1 kmENE (60°)16.7 km/hPartly Cloudy
11:54 PM25.9 °C23.2 °C85 %1009.8 hPa16.1 kmENE (60°)22.2 km/hPartly Cloudy
Hourly data recorded from PGUM, located 0 kilometers away from Camp Quezon, Guam







STORIES FROM OUR PARTNERS